Regional Weather Roundup
Issued by NWS Upton, NY

Current Version | Previous Version | Text Only | Print | Product List | Glossary On
Versions: 1 2 3 4 5 6 7 8 9 10 11 12 13 14 15 16 17 18 19 20 21 22 23 24 25 26 27 28 29 30 31 32 33 34 35 36 37 38 39 40 41 42 43 44 45 46 47 48 49 50
000 ASUS41 KOKX 221404 RWROKX REGIONAL WEATHER ROUNDUP NATIONAL WEATHER SERVICE NEW YORK NY 1000 AM EDT FRI JUL 22 2016 NOTE: "FAIR" INDICATES FEW OR NO CLOUDS BELOW 12,000 FEET WITH NO SIGNIFICANT WEATHER AND/OR OBSTRUCTIONS TO VISIBILITY. NYZ071-072-176-178-NJZ106-104-221500- NEW YORK CITY METRO AREA CITY SKY/WX TMP DP RH WIND PRES REMARKS Central Park MOSUNNY 81 67 62 VRB7 29.97F LaGuardia APRT PTSUNNY 85 67 54 SW14G20 29.93F Kennedy INTL PTSUNNY 81 70 69 SW17 29.96F Newark/Liberty PTSUNNY 84 68 58 SW14 29.94F BRNX BOT. GARD N/A 82 66 57 W14 29.94F Wall St Helipt MOSUNNY 81 72 74 SW8 29.95F Teterboro MOSUNNY 84 66 54 SW9 29.93F $$ NYZ177-179-078>081-221500- LONG ISLAND NEW YORK CITY SKY/WX TMP DP RH WIND PRES REMARKS FARMINGDALE CLOUDY 81 69 67 SW14G21 29.95F ISLIP PTSUNNY 80 70 71 SW14 29.94F SHIRLEY MOSUNNY 79 70 74 SW9G23 29.96F RIVERHEAD NOT AVBL WESTHAMPTON CLOUDY 78 69 73 SW14G28 29.96F SOUTHAMPTON N/A 73 70 88 SW12 29.91F BRIDGEHAMPTON N/A 77 72 83 SE2 29.94F EAST HAMPTON FAIR 78 70 76 SW16 29.93F MONTAUK POINT N/A 77 70 79 SW10G22 29.95F $$ NYZ052-065-067-221500- HUDSON VALLEY CITY SKY/WX TMP DP RH WIND PRES REMARKS WHITE PLAINS MOSUNNY 81 67 62 W8 29.94F NEWBURGH PTSUNNY 81 68 65 W14 29.94F MONTGOMERY SUNNY 80 68 66 S7 29.91F POUGHKEEPSIE MOSUNNY 83 65 54 SW12 29.90F ALBANY CLOUDY 80 64 58 S9 29.86F $$ NJZ001-105-106-008-010-013-015-019>022-104-221500- NEW JERSEY CITY SKY/WX TMP DP RH WIND PRES REMARKS NEWARK/LIBERTY PTSUNNY 84 68 58 SW14 29.94F TETERBORO MOSUNNY 84 66 54 SW9 29.93F CALDWELL CLOUDY 81 68 64 VRB7 29.94F MORRISTOWN PTSUNNY 81 68 65 W8 29.96F SOMERVILLE MOSUNNY 81 68 64 VRB6 29.95F SUSSEX MOSUNNY 80 67 64 SW9 29.94F ANDOVER N/A 79 67 66 SW9 29.96F TRENTON MOSUNNY 81 69 67 SW7 29.97F MILLVILLE CLOUDY 82 71 69 SW9 30.01F ATLANTIC CITY MOSUNNY 84 71 65 SW13 30.00F WRIGHTSTOWN MOSUNNY 83 71 67 SW14 29.96F TOMS RIVER MOSUNNY 84 72 67 SW10G18 29.99F BELMAR MOSUNNY 83 70 64 SW12 29.99F $$ PAZ047>061-062-071-221500- EASTERN PENNSYLVANIA CITY SKY/WX TMP DP RH WIND PRES REMARKS PHILADELPHIA PTSUNNY 83 71 67 SW10 29.99F ALLENTOWN MOSUNNY 83 67 58 SW10 29.98F SCRANTON MOSUNNY 82 64 54 SW13 29.98F $$ CTZ002-004>006-009-010-012-RIZ004-006-007-MAZ004-011-015-221500- SOUTHERN NEW ENGLAND IN CT CITY SKY/WX TMP DP RH WIND PRES REMARKS BRADLEY INTL MOSUNNY 82 65 56 S12 29.88F HARTFORD MOSUNNY 84 67 56 VRB7 29.89F DANBURY SUNNY 80 66 62 SW10 29.94F WTRBRY/OXFORD NOT AVBL BRIDGEPORT MOSUNNY 80 69 69 SW15 29.92F MERIDEN CLOUDY 83 67 58 SW9 29.91F NEW HAVEN CLOUDY 77 69 76 SW10G20 29.92F CHESTER N/A 79 70 73 SW10 29.94S GROTON CLOUDY 79 70 74 SW8 29.92F WILLIMANTIC NOT AVBL IN RI CITY SKY/WX TMP DP RH WIND PRES REMARKS PROVIDENCE MOSUNNY 83 66 56 W12 29.90F BLOCK ISLAND MOSUNNY 75 69 81 SW21 29.94F WESTERLY MOSUNNY 80 67 64 SW14G25 29.93F IN MA CITY SKY/WX TMP DP RH WIND PRES REMARKS BOSTON MOSUNNY 85 63 47 SW18 29.85F WORCESTER SUNNY 80 62 54 SW16G24 29.90F WESTFIELD SUNNY 83 64 52 S10 29.87F PROVINCETOWN NOT AVBL NANTUCKET CLOUDY 74 70 87 SW15 29.95F $$ ANZ330-335-338-340-345-350-353-355-221500- COASTAL MARINE OBSERVATIONS STATION/POSITION TIME SKY/WX TEMP WIND PRES VSBY WAVE AIR SEA DIR/SP/G HT/PER (UTC) (F) (DEG/KT/KT) (MB) (MI) (FT/S) NY HARB ENTRANCE 1250 74 73 220/ 14/ 16 1014.8 3/ 5 20S FIRE ISLAND 1250 75 73 220/ 16/ 19 1014.9 4/ 5 GREAT SOUTH BAY 1300 75 79 240/ 16/ 19 N/A 23 SSW MONTAUK P 1250 75 72 220/ 16/ 19 1015.1 4/ 5 15 E BARNEGAT LI 1322 76 N/A 4/ 4 HUDSON CANYON 1250 77 75 1016.3 3/ 5 KINGS POINT 1300 77 72 1014.0 EXECUTION ROCKS 1300 76 200/ 10/ 12 N/A CENTRAL LI SOUND NOT AVBL EASTERN LI SOUND 1300 73 68 220/ 12/ 14 N/A ROBBINS REEF 1300 78 250/ 18/ 21 1013.8 $$ >>>>>>>>>>>>>>>>>>>>>>>>>>>> KEY <<<<<<<<<<<<<<<<<<<<<<<<<<< > < > SKY/WX - SKY CONDITION/PRESENT WEATHER < > TMP - TEMPERATURE IN FAHRENHEIT < > DP - DEWPOINT IN FAHRENHEIT < > RH - RELATIVE HUMIDITY IN PERCENT < > WIND - DIRECTION AND SPEED IN MPH < > PRES - MEAN SEA LEVEL PRESSURE IN INCHES OF HG < > WCI - WIND CHILL INDEX < > VSB - VISIBILITY IN MILES < > HX - HEAT INDEX < > TC - TEMPERATURE IN CELSIUS < > VRB - VARIABLE WIND DIRECTION < > < >>>>>>>>>>>>>>>>>>>>>>>>>>>> KEY <<<<<<<<<<<<<<<<<<<<<<<<<<<

USA.gov is the U.S. government's official web portal to all federal, state and local government web resources and services.